Location: São Paulo
(23.5507°S, 46.6334°W)
Time: 07:34:26
(UTC-03:00)

Transit 4A - Pass Details

Date: 21 February 2026
Orbit: 864 x 977 km, 66.8° (Epoch: 11 March)

Event Time Altitude Azimuth Distance (km) Brightness Sun altitude
Rises 23:20:00 0° 182° (S) 3,504 11.4 -53.2°
Enters shadow 23:20:49 - 178° (S) 3,255 11.2 -53.2°
Reaches altitude 10° 23:23:26 10° 162° (SSE) 2,542 - -53.5°
Maximum altitude 23:27:14 17° 122° (ESE) 2,040 - -53.8°
Drops below altitude 10° 23:30:58 10° 81° (E) 2,507 - -54.2°
Sets 23:34:18 0° 62° (ENE) 3,435 - -54.4°
